Regional Weather Roundup
Issued by NWS Sioux Falls, SD

Home | Current Version | Previous Version | Text Only | Print | Product List | Glossary Off
Versions: 1 2 3 4 5 6 7 8 9 10 11 12 13 14 15 16 17 18 19 20 21 22 23 24 25 26 27 28 29 30 31 32 33 34 35 36 37 38 39 40 41 42 43 44 45 46 47 48 49 50

000
ASUS43 KFSD 011802
RWRFSD

WEATHER ROUNDUP FOR SE SOUTH DAKOTA/SW MINNESOTA/NW IOWA
NATIONAL WEATHER SERVICE SIOUX FALLS SD
100 PM CDT SAT AUG 01 2015

NOTE: "FAIR" INDICATES FEW OR NO CLOUDS BELOW 12,000 FEET WITH NO
SIGNIFICANT WEATHER AND OR OBSTRUCTIONS TO VISIBILITY.


SDZ038>040-050-052>070-011900-
SOUTHEAST SOUTH DAKOTA

CITY           SKY/WX    TMP DP  RH WIND       PRES   REMARKS
BROOKINGS      MOSUNNY   82  63  51 SW15G22   29.97R
CHAMBERLAIN    NOT AVBL
HURON          SUNNY     87  59  38 SW16G25   29.90F
6HR MIN TEMP:  62; 6HR MAX TEMP:  88;

MADISON        FAIR      81  63  54 SW20      29.97F
MITCHELL       PTSUNNY   80  62  54 SW14G21   29.95R
6HR MIN TEMP:  61; 6HR MAX TEMP:  82;

SIOUX FALLS    CLOUDY    79  63  57 SW13G22   29.99F
6HR MIN TEMP:  65; 6HR MAX TEMP:  79;

WINNER         FAIR      77  58  51 S22G29    29.95F
YANKTON        CLOUDY    77  61  57 SW12      29.99F
$$

MNZ071-072-080-081-089-090-097-098-011900-
SOUTHWEST MINNESOTA

CITY           SKY/WX    TMP DP  RH WIND       PRES   REMARKS
FAIRMONT       MOSUNNY   84  64  51 SW6       29.97F
JACKSON        SUNNY     82  68  61 SW8       30.00F
LUVERNE        PTSUNNY   81  64  57 SW12      29.99F
MARSHALL       MOSUNNY   84  66  54 W14       29.96F
6HR MIN TEMP:  63; 6HR MAX TEMP:  84;

MONTEVIDEO     MOSUNNY   82  66  57 SW7       29.95F
PIPESTONE      MOSUNNY   81  64  57 SW13      29.98F
REDWOOD FALLS  PTSUNNY   78  65  63 S7        29.96F
TRACY          MOSUNNY   84  70  61 SW10      29.97F
WINDOM         MOSUNNY   84  66  54 SW10      29.98F
WORTHINGTON    MOSUNNY   81  64  57 W14       30.00F
$$

IAZ001>003-012>014-020>022-031-032-NEZ013-014-SDZ071-011900-
NORTHWEST IOWA

CITY           SKY/WX    TMP DP  RH WIND       PRES   REMARKS
DENISON        PTSUNNY   79  68  69 CALM      30.00F
ESTHERVILLE    MOSUNNY   81  68  64 W12       29.99F
SIOUX CITY     PTSUNNY   81  66  60 W9        30.01S
6HR MIN TEMP:  65; 6HR MAX TEMP:  82;

SPENCER        PTSUNNY   83  66  56 SW12      30.00F
6HR MIN TEMP:  66; 6HR MAX TEMP:  84;

$$

ABBREVIATIONS USED IN REMARKS
   TC - TEMPERATURE IN CELSIUS
  WCI - WIND CHILL INDEX
   HX - HEAT INDEX
  VSB - VISIBILITY




USA.gov is the U.S. government's official web portal to all federal, state and local government web resources and services.